Regional Weather Roundup
Issued by NWS Sioux Falls, SD

Home | Current Version | Previous Version | Graphics & Text | Print | Product List | Glossary Off
Versions: 1 2 3 4 5 6 7 8 9 10 11 12 13 14 15 16 17 18 19 20 21 22 23 24 25 26 27 28 29 30 31 32 33 34 35 36 37 38 39 40 41 42 43 44 45 46 47 48 49 50

000
ASUS43 KFSD 200802
RWRFSD

WEATHER ROUNDUP FOR SE SOUTH DAKOTA/SW MINNESOTA/NW IOWA
NATIONAL WEATHER SERVICE SIOUX FALLS SD
300 AM CDT FRI APR 20 2018

NOTE: "FAIR" INDICATES FEW OR NO CLOUDS BELOW 12,000 FEET WITH NO
SIGNIFICANT WEATHER AND OR OBSTRUCTIONS TO VISIBILITY.


SDZ038>040-050-052>070-200900-
SOUTHEAST SOUTH DAKOTA

CITY           SKY/WX    TMP DP  RH WIND       PRES   REMARKS
BROOKINGS      PTCLDY    29  25  85 SE6       30.42  WCI  23
CHAMBERLAIN    MOCLDY    34  34  99 SE12      30.33F WCI  26
HURON          CLOUDY    32  27  81 SE8       30.39F WCI  25
MITCHELL       MOCLDY    32  27  81 SE12      30.40F WCI  23
SIOUX FALLS    CLOUDY    31  22  69 E5        30.43F WCI  26
WINNER         FAIR      36  29  75 SE16      30.29F
YANKTON        MOCLDY    30  26  85 E7        30.41F WCI  23
$$

MNZ071-072-080-081-089-090-097-098-200900-
SOUTHWEST MINNESOTA

CITY           SKY/WX    TMP DP  RH WIND       PRES   REMARKS
FAIRMONT       CLOUDY    18  16  92 CALM      30.47F
JACKSON        CLOUDY    23  19  86 CALM      30.45F
LUVERNE        CLOUDY    28  27  93 CALM      30.45S
MARSHALL       PTCLDY    30  22  72 SW9       30.45F WCI  22
MONTEVIDEO     CLOUDY    28  25  86 SW3       30.45F
PIPESTONE      CLOUDY   N/A N/A N/A SE3       30.42F
REDWOOD FALLS  PTCLDY    27  22  81 CALM      30.46F
TRACY          CLOUDY    29  24  81 SW5       30.44F WCI  24
WINDOM         CLOUDY    23  10  58 CALM      30.45F
WORTHINGTON    PTCLDY    29  20  69 S5        30.44F WCI  24
$$

IAZ001>003-012>014-020>022-031-032-NEZ013-014-SDZ071-200900-
NORTHWEST IOWA

CITY           SKY/WX    TMP DP  RH WIND       PRES   REMARKS
CHEROKEE       CLOUDY    27  22  80 CALM      30.45F
DENISON        CLOUDY    32  27  80 E6        30.46S WCI  26
ESTHERVILLE    CLOUDY    18  15  88 CALM      30.46S
LE MARS        CLOUDY    32  23  69 CALM      30.44F
ORANGE CITY    CLOUDY    30  21  69 E5        30.44S WCI  25
SHELDON        CLOUDY    28  25  86 SE6       30.43S WCI  22
SIOUX CITY     PTCLDY    30  23  75 E7        30.43F WCI  23
SPENCER        CLOUDY    23  17  78 CALM      30.46S
STORM LAKE     CLOUDY    30  23  74 SE8       30.44F WCI  23
$$

ABBREVIATIONS USED IN REMARKS
   TC - TEMPERATURE IN CELSIUS
  WCI - WIND CHILL INDEX
   HX - HEAT INDEX
  VSB - VISIBILITY




USA.gov is the U.S. government's official web portal to all federal, state and local government web resources and services.